���͔��d,,,
,,,
DATE,TIME,�z��l(MWh),���ђl(MWh)
2020/4/1,0:00,35,30
2020/4/1,0:30,37,30
2020/4/1,1:00,39,33
2020/4/1,1:30,40,33
2020/4/1,2:00,41,35
2020/4/1,2:30,40,37
2020/4/1,3:00,38,41
2020/4/1,3:30,36,46
2020/4/1,4:00,32,38
2020/4/1,4:30,25,32
2020/4/1,5:00,20,41
2020/4/1,5:30,16,40
2020/4/1,6:00,15,34
2020/4/1,6:30,18,28
2020/4/1,7:00,19,29
2020/4/1,7:30,19,24
2020/4/1,8:00,20,21
2020/4/1,8:30,22,33
2020/4/1,9:00,26,33
2020/4/1,9:30,33,30
2020/4/1,10:00,43,35
2020/4/1,10:30,57,41
2020/4/1,11:00,66,53
2020/4/1,11:30,68,49
2020/4/1,12:00,68,59
2020/4/1,12:30,65,69
2020/4/1,13:00,64,70
2020/4/1,13:30,67,73
2020/4/1,14:00,74,68
2020/4/1,14:30,85,74
2020/4/1,15:00,89,83
2020/4/1,15:30,82,89
2020/4/1,16:00,79,88
2020/4/1,16:30,79,87
2020/4/1,17:00,81,83
2020/4/1,17:30,87,85
2020/4/1,18:00,91,81
2020/4/1,18:30,93,77
2020/4/1,19:00,94,77
2020/4/1,19:30,93,80
2020/4/1,20:00,91,82
2020/4/1,20:30,86,78
2020/4/1,21:00,82,79
2020/4/1,21:30,79,80
2020/4/1,22:00,74,77
2020/4/1,22:30,66,77
2020/4/1,23:00,61,75
2020/4/1,23:30,61,74
2020/4/2,0:00,76,75
2020/4/2,0:30,68,72
2020/4/2,1:00,61,66
2020/4/2,1:30,54,63
2020/4/2,2:00,49,64
2020/4/2,2:30,45,63
2020/4/2,3:00,43,64
2020/4/2,3:30,43,62
2020/4/2,4:00,46,57
2020/4/2,4:30,52,66
2020/4/2,5:00,59,72
2020/4/2,5:30,67,77
2020/4/2,6:00,74,81
2020/4/2,6:30,78,79
2020/4/2,7:00,80,75
2020/4/2,7:30,80,71
2020/4/2,8:00,78,69
2020/4/2,8:30,76,66
2020/4/2,9:00,74,63
2020/4/2,9:30,72,66
2020/4/2,10:00,72,71
2020/4/2,10:30,72,77
2020/4/2,11:00,72,70
2020/4/2,11:30,72,66
2020/4/2,12:00,71,70
2020/4/2,12:30,69,67
2020/4/2,13:00,68,69
2020/4/2,13:30,68,70
2020/4/2,14:00,66,68
2020/4/2,14:30,60,64
2020/4/2,15:00,54,64
2020/4/2,15:30,50,61
2020/4/2,16:00,46,56
2020/4/2,16:30,41,48
2020/4/2,17:00,37,44
2020/4/2,17:30,32,39
2020/4/2,18:00,28,32
2020/4/2,18:30,24,29
2020/4/2,19:00,20,25
2020/4/2,19:30,18,23
2020/4/2,20:00,16,19
2020/4/2,20:30,14,17
2020/4/2,21:00,14,17
2020/4/2,21:30,13,17
2020/4/2,22:00,13,17
2020/4/2,22:30,13,13
2020/4/2,23:00,13,9
2020/4/2,23:30,12,5
2020/4/3,0:00,5,4
2020/4/3,0:30,5,2
2020/4/3,1:00,5,1
2020/4/3,1:30,5,1
2020/4/3,2:00,5,2
2020/4/3,2:30,5,1
2020/4/3,3:00,5,1
2020/4/3,3:30,5,2
2020/4/3,4:00,5,2
2020/4/3,4:30,5,2
2020/4/3,5:00,5,2
2020/4/3,5:30,5,1
2020/4/3,6:00,5,1
2020/4/3,6:30,5,1
2020/4/3,7:00,4,2
2020/4/3,7:30,4,1
2020/4/3,8:00,4,1
2020/4/3,8:30,4,1
2020/4/3,9:00,3,0
2020/4/3,9:30,3,0
2020/4/3,10:00,3,0
2020/4/3,10:30,3,0
2020/4/3,11:00,3,1
2020/4/3,11:30,4,1
2020/4/3,12:00,4,1
2020/4/3,12:30,5,2
2020/4/3,13:00,5,2
2020/4/3,13:30,5,3
2020/4/3,14:00,5,2
2020/4/3,14:30,4,4
2020/4/3,15:00,4,7
2020/4/3,15:30,4,11
2020/4/3,16:00,4,11
2020/4/3,16:30,4,11
2020/4/3,17:00,4,12
2020/4/3,17:30,4,14
2020/4/3,18:00,4,15
2020/4/3,18:30,4,16
2020/4/3,19:00,4,14
2020/4/3,19:30,4,13
2020/4/3,20:00,4,13
2020/4/3,20:30,4,12
2020/4/3,21:00,4,10
2020/4/3,21:30,4,7
2020/4/3,22:00,4,6
2020/4/3,22:30,4,6
2020/4/3,23:00,5,4
2020/4/3,23:30,5,4
2020/4/4,0:00,4,2
2020/4/4,0:30,4,2
2020/4/4,1:00,4,2
2020/4/4,1:30,5,2
2020/4/4,2:00,5,1
2020/4/4,2:30,5,1
2020/4/4,3:00,5,2
2020/4/4,3:30,5,0
2020/4/4,4:00,5,0
2020/4/4,4:30,5,1
2020/4/4,5:00,5,2
2020/4/4,5:30,5,1
2020/4/4,6:00,5,2
2020/4/4,6:30,5,2
2020/4/4,7:00,5,3
2020/4/4,7:30,5,2
2020/4/4,8:00,5,3
2020/4/4,8:30,6,2
2020/4/4,9:00,6,3
2020/4/4,9:30,7,2
2020/4/4,10:00,8,2
2020/4/4,10:30,9,2
2020/4/4,11:00,10,4
2020/4/4,11:30,11,6
2020/4/4,12:00,12,10
2020/4/4,12:30,12,13
2020/4/4,13:00,13,12
2020/4/4,13:30,14,14
2020/4/4,14:00,16,18
2020/4/4,14:30,19,20
2020/4/4,15:00,22,21
2020/4/4,15:30,25,25
2020/4/4,16:00,28,28
2020/4/4,16:30,29,27
2020/4/4,17:00,30,21
2020/4/4,17:30,30,26
2020/4/4,18:00,31,28
2020/4/4,18:30,32,30
2020/4/4,19:00,32,30
2020/4/4,19:30,33,28
2020/4/4,20:00,32,27
2020/4/4,20:30,32,28
2020/4/4,21:00,32,28
2020/4/4,21:30,32,30
2020/4/4,22:00,33,28
2020/4/4,22:30,32,37
2020/4/4,23:00,32,40
2020/4/4,23:30,32,37
2020/4/5,0:00,44,35
2020/4/5,0:30,47,36
2020/4/5,1:00,51,34
2020/4/5,1:30,55,40
2020/4/5,2:00,60,47
2020/4/5,2:30,65,51
2020/4/5,3:00,69,59
2020/4/5,3:30,71,65
2020/4/5,4:00,73,71
2020/4/5,4:30,73,71
2020/4/5,5:00,74,75
2020/4/5,5:30,73,81
2020/4/5,6:00,73,81
2020/4/5,6:30,72,83
2020/4/5,7:00,72,84
2020/4/5,7:30,72,84
2020/4/5,8:00,71,83
2020/4/5,8:30,70,83
2020/4/5,9:00,68,85
2020/4/5,9:30,68,84
2020/4/5,10:00,67,83
2020/4/5,10:30,65,79
2020/4/5,11:00,63,79
2020/4/5,11:30,61,79
2020/4/5,12:00,59,74
2020/4/5,12:30,59,69
2020/4/5,13:00,58,67
2020/4/5,13:30,58,66
2020/4/5,14:00,58,66
2020/4/5,14:30,57,68
2020/4/5,15:00,56,69
2020/4/5,15:30,56,68
2020/4/5,16:00,56,66
2020/4/5,16:30,55,65
2020/4/5,17:00,55,60
2020/4/5,17:30,54,57
2020/4/5,18:00,53,52
2020/4/5,18:30,52,51
2020/4/5,19:00,52,49
2020/4/5,19:30,51,51
2020/4/5,20:00,51,51
2020/4/5,20:30,51,48
2020/4/5,21:00,50,45
2020/4/5,21:30,50,49
2020/4/5,22:00,49,47
2020/4/5,22:30,47,42
2020/4/5,23:00,45,48
2020/4/5,23:30,43,44
2020/4/6,0:00,33,39
2020/4/6,0:30,32,35
2020/4/6,1:00,31,32
2020/4/6,1:30,30,36
2020/4/6,2:00,28,36
2020/4/6,2:30,28,37
2020/4/6,3:00,27,39
2020/4/6,3:30,26,37
2020/4/6,4:00,23,33
2020/4/6,4:30,20,35
2020/4/6,5:00,17,36
2020/4/6,5:30,16,34
2020/4/6,6:00,14,31
2020/4/6,6:30,14,26
2020/4/6,7:00,14,20
2020/4/6,7:30,15,13
2020/4/6,8:00,16,12
2020/4/6,8:30,15,11
2020/4/6,9:00,14,10
2020/4/6,9:30,12,10
2020/4/6,10:00,10,8
2020/4/6,10:30,9,7
2020/4/6,11:00,8,6
2020/4/6,11:30,8,7
2020/4/6,12:00,9,9
2020/4/6,12:30,9,8
2020/4/6,13:00,10,9
2020/4/6,13:30,9,11
2020/4/6,14:00,9,9
2020/4/6,14:30,9,10
2020/4/6,15:00,9,7
2020/4/6,15:30,8,5
2020/4/6,16:00,8,3
2020/4/6,16:30,7,3
2020/4/6,17:00,6,5
2020/4/6,17:30,5,6
2020/4/6,18:00,5,5
2020/4/6,18:30,5,5
2020/4/6,19:00,6,3
2020/4/6,19:30,6,3
2020/4/6,20:00,7,2
2020/4/6,20:30,7,2
2020/4/6,21:00,7,3
2020/4/6,21:30,7,3
2020/4/6,22:00,7,5
2020/4/6,22:30,7,4
2020/4/6,23:00,7,4
2020/4/6,23:30,7,3
2020/4/7,0:00,5,3
2020/4/7,0:30,5,4
2020/4/7,1:00,5,3
2020/4/7,1:30,5,3
2020/4/7,2:00,5,2
2020/4/7,2:30,5,1
2020/4/7,3:00,5,1
2020/4/7,3:30,5,1
2020/4/7,4:00,5,1
2020/4/7,4:30,5,0
2020/4/7,5:00,5,0
2020/4/7,5:30,5,0
2020/4/7,6:00,5,0
2020/4/7,6:30,5,0
2020/4/7,7:00,4,0
2020/4/7,7:30,4,0
2020/4/7,8:00,4,0
2020/4/7,8:30,4,0
2020/4/7,9:00,5,0
2020/4/7,9:30,6,0
2020/4/7,10:00,7,0
2020/4/7,10:30,9,0
2020/4/7,11:00,10,0
2020/4/7,11:30,11,0
2020/4/7,12:00,11,0
2020/4/7,12:30,11,1
2020/4/7,13:00,11,2
2020/4/7,13:30,11,3
2020/4/7,14:00,12,4
2020/4/7,14:30,12,5
2020/4/7,15:00,13,4
2020/4/7,15:30,14,5
2020/4/7,16:00,15,5
2020/4/7,16:30,16,6
2020/4/7,17:00,16,5
2020/4/7,17:30,16,5
2020/4/7,18:00,16,7
2020/4/7,18:30,16,7
2020/4/7,19:00,15,7
2020/4/7,19:30,15,7
2020/4/7,20:00,14,6
2020/4/7,20:30,12,7
2020/4/7,21:00,11,8
2020/4/7,21:30,10,8
2020/4/7,22:00,8,7
2020/4/7,22:30,8,6
2020/4/7,23:00,7,7
2020/4/7,23:30,7,11
2020/4/8,0:00,10,13
2020/4/8,0:30,10,13
2020/4/8,1:00,9,13
2020/4/8,1:30,9,13
2020/4/8,2:00,9,11
2020/4/8,2:30,9,11
2020/4/8,3:00,9,12
2020/4/8,3:30,10,13
2020/4/8,4:00,10,13
2020/4/8,4:30,10,13
2020/4/8,5:00,11,13
2020/4/8,5:30,11,12
2020/4/8,6:00,12,10
2020/4/8,6:30,12,9
2020/4/8,7:00,13,9
2020/4/8,7:30,15,6
2020/4/8,8:00,18,4
2020/4/8,8:30,21,4
2020/4/8,9:00,24,4
2020/4/8,9:30,27,4
2020/4/8,10:00,29,4
2020/4/8,10:30,31,4
2020/4/8,11:00,33,5
2020/4/8,11:30,34,8
2020/4/8,12:00,35,11
2020/4/8,12:30,37,12
2020/4/8,13:00,39,13
2020/4/8,13:30,42,14
2020/4/8,14:00,44,15
2020/4/8,14:30,46,14
2020/4/8,15:00,47,14
2020/4/8,15:30,49,21
2020/4/8,16:00,51,23
2020/4/8,16:30,51,22
2020/4/8,17:00,51,23
2020/4/8,17:30,50,24
2020/4/8,18:00,49,26
2020/4/8,18:30,49,28
2020/4/8,19:00,49,30
2020/4/8,19:30,49,28
2020/4/8,20:00,49,25
2020/4/8,20:30,50,25
2020/4/8,21:00,50,26
2020/4/8,21:30,48,28
2020/4/8,22:00,46,28
2020/4/8,22:30,43,31
2020/4/8,23:00,39,32
2020/4/8,23:30,36,30
2020/4/9,0:00,32,29
2020/4/9,0:30,29,30
2020/4/9,1:00,26,33
2020/4/9,1:30,24,32
2020/4/9,2:00,22,34
2020/4/9,2:30,20,37
2020/4/9,3:00,17,37
2020/4/9,3:30,15,36
2020/4/9,4:00,12,35
2020/4/9,4:30,10,40
2020/4/9,5:00,8,38
2020/4/9,5:30,7,37
2020/4/9,6:00,6,31
2020/4/9,6:30,5,24
2020/4/9,7:00,5,18
2020/4/9,7:30,5,14
2020/4/9,8:00,4,11
2020/4/9,8:30,4,11
2020/4/9,9:00,4,9
2020/4/9,9:30,4,9
2020/4/9,10:00,4,7
2020/4/9,10:30,5,8
2020/4/9,11:00,5,9
2020/4/9,11:30,6,10
2020/4/9,12:00,6,10
2020/4/9,12:30,6,11
2020/4/9,13:00,6,13
2020/4/9,13:30,7,13
2020/4/9,14:00,9,13
2020/4/9,14:30,11,12
2020/4/9,15:00,13,15
2020/4/9,15:30,16,18
2020/4/9,16:00,21,18
2020/4/9,16:30,28,20
2020/4/9,17:00,33,22
2020/4/9,17:30,35,29
2020/4/9,18:00,37,35
2020/4/9,18:30,38,35
2020/4/9,19:00,40,36
2020/4/9,19:30,45,43
2020/4/9,20:00,49,49
2020/4/9,20:30,52,52
2020/4/9,21:00,55,55
2020/4/9,21:30,59,51
2020/4/9,22:00,59,55
2020/4/9,22:30,54,53
2020/4/9,23:00,51,58
2020/4/9,23:30,49,60
2020/4/10,0:00,55,70
2020/4/10,0:30,56,70
2020/4/10,1:00,55,75
2020/4/10,1:30,53,74
2020/4/10,2:00,50,69
2020/4/10,2:30,47,62
2020/4/10,3:00,45,56
2020/4/10,3:30,44,49
2020/4/10,4:00,43,46
2020/4/10,4:30,42,43
2020/4/10,5:00,42,40
2020/4/10,5:30,41,37
2020/4/10,6:00,41,36
2020/4/10,6:30,40,35
2020/4/10,7:00,39,35
2020/4/10,7:30,38,32
2020/4/10,8:00,37,27
2020/4/10,8:30,37,28
2020/4/10,9:00,37,26
2020/4/10,9:30,37,27
2020/4/10,10:00,37,26
2020/4/10,10:30,37,30
2020/4/10,11:00,37,31
2020/4/10,11:30,38,37
2020/4/10,12:00,39,47
2020/4/10,12:30,39,45
2020/4/10,13:00,39,46
2020/4/10,13:30,37,50
2020/4/10,14:00,36,46
2020/4/10,14:30,36,40
2020/4/10,15:00,36,35
2020/4/10,15:30,36,30
2020/4/10,16:00,36,34
2020/4/10,16:30,35,40
2020/4/10,17:00,34,38
2020/4/10,17:30,34,38
2020/4/10,18:00,34,42
2020/4/10,18:30,36,45
2020/4/10,19:00,37,46
2020/4/10,19:30,38,48
2020/4/10,20:00,38,45
2020/4/10,20:30,36,40
2020/4/10,21:00,35,40
2020/4/10,21:30,35,42
2020/4/10,22:00,35,39
2020/4/10,22:30,35,39
2020/4/10,23:00,34,35
2020/4/10,23:30,32,31
2020/4/11,0:00,26,28
2020/4/11,0:30,25,24
2020/4/11,1:00,25,26
2020/4/11,1:30,26,24
2020/4/11,2:00,25,21
2020/4/11,2:30,23,25
2020/4/11,3:00,21,29
2020/4/11,3:30,20,32
2020/4/11,4:00,19,28
2020/4/11,4:30,18,27
2020/4/11,5:00,18,25
2020/4/11,5:30,17,28
2020/4/11,6:00,17,27
2020/4/11,6:30,17,26
2020/4/11,7:00,17,24
2020/4/11,7:30,16,23
2020/4/11,8:00,15,19
2020/4/11,8:30,12,17
2020/4/11,9:00,10,14
2020/4/11,9:30,10,11
2020/4/11,10:00,10,10
2020/4/11,10:30,10,6
2020/4/11,11:00,10,5
2020/4/11,11:30,10,5
2020/4/11,12:00,9,5
2020/4/11,12:30,9,6
2020/4/11,13:00,9,4
2020/4/11,13:30,9,4
2020/4/11,14:00,10,4
2020/4/11,14:30,11,4
2020/4/11,15:00,12,3
2020/4/11,15:30,14,3
2020/4/11,16:00,16,2
2020/4/11,16:30,18,1
2020/4/11,17:00,19,0
2020/4/11,17:30,19,0
2020/4/11,18:00,17,0
2020/4/11,18:30,15,0
2020/4/11,19:00,13,0
2020/4/11,19:30,12,0
2020/4/11,20:00,10,0
2020/4/11,20:30,8,0
2020/4/11,21:00,7,0
2020/4/11,21:30,6,2
2020/4/11,22:00,5,5
2020/4/11,22:30,6,7
2020/4/11,23:00,6,8
2020/4/11,23:30,6,8
2020/4/12,0:00,10,8
2020/4/12,0:30,10,13
2020/4/12,1:00,9,16
2020/4/12,1:30,8,20
2020/4/12,2:00,7,23
2020/4/12,2:30,6,28
2020/4/12,3:00,6,27
2020/4/12,3:30,7,26
2020/4/12,4:00,7,34
2020/4/12,4:30,6,27
2020/4/12,5:00,6,24
2020/4/12,5:30,6,21
2020/4/12,6:00,7,21
2020/4/12,6:30,9,24
2020/4/12,7:00,11,20
2020/4/12,7:30,13,24
2020/4/12,8:00,15,28
2020/4/12,8:30,17,31
2020/4/12,9:00,20,35
2020/4/12,9:30,23,44
2020/4/12,10:00,25,46
2020/4/12,10:30,28,47
2020/4/12,11:00,31,47
2020/4/12,11:30,35,48
2020/4/12,12:00,38,45
2020/4/12,12:30,40,48
2020/4/12,13:00,41,43
2020/4/12,13:30,42,37
2020/4/12,14:00,43,33
2020/4/12,14:30,44,32
2020/4/12,15:00,45,33
2020/4/12,15:30,46,37
2020/4/12,16:00,46,35
2020/4/12,16:30,45,37
2020/4/12,17:00,48,36
2020/4/12,17:30,56,34
2020/4/12,18:00,58,27
2020/4/12,18:30,52,26
2020/4/12,19:00,49,26
2020/4/12,19:30,51,27
2020/4/12,20:00,54,27
2020/4/12,20:30,58,29
2020/4/12,21:00,65,41
2020/4/12,21:30,73,55
2020/4/12,22:00,78,73
2020/4/12,22:30,77,80
2020/4/12,23:00,75,88
2020/4/12,23:30,72,84
2020/4/13,0:00,64,81
2020/4/13,0:30,74,87
2020/4/13,1:00,78,86
2020/4/13,1:30,74,86
2020/4/13,2:00,72,85
2020/4/13,2:30,71,83
2020/4/13,3:00,72,81
2020/4/13,3:30,72,76
2020/4/13,4:00,72,76
2020/4/13,4:30,72,74
2020/4/13,5:00,69,72
2020/4/13,5:30,64,69
2020/4/13,6:00,61,68
2020/4/13,6:30,62,73
2020/4/13,7:00,56,76
2020/4/13,7:30,41,72
2020/4/13,8:00,31,71
2020/4/13,8:30,29,75
2020/4/13,9:00,27,72
2020/4/13,9:30,25,71
2020/4/13,10:00,23,74
2020/4/13,10:30,20,76
2020/4/13,11:00,19,73
2020/4/13,11:30,22,69
2020/4/13,12:00,26,63
2020/4/13,12:30,31,56
2020/4/13,13:00,35,56
2020/4/13,13:30,37,47
2020/4/13,14:00,38,43
2020/4/13,14:30,37,47
2020/4/13,15:00,45,46
2020/4/13,15:30,65,52
2020/4/13,16:00,76,52
2020/4/13,16:30,74,52
2020/4/13,17:00,73,55
2020/4/13,17:30,74,57
2020/4/13,18:00,77,57
2020/4/13,18:30,82,56
2020/4/13,19:00,83,57
2020/4/13,19:30,78,60
2020/4/13,20:00,74,63
2020/4/13,20:30,70,61
2020/4/13,21:00,72,63
2020/4/13,21:30,83,65
2020/4/13,22:00,90,66
2020/4/13,22:30,90,65
2020/4/13,23:00,91,64
2020/4/13,23:30,91,63
2020/4/14,0:00,86,62
2020/4/14,0:30,84,58
2020/4/14,1:00,83,56
2020/4/14,1:30,83,59
2020/4/14,2:00,84,62
2020/4/14,2:30,89,60
2020/4/14,3:00,91,58
2020/4/14,3:30,90,60
2020/4/14,4:00,88,62
2020/4/14,4:30,85,62
2020/4/14,5:00,81,61
2020/4/14,5:30,78,60
2020/4/14,6:00,76,57
2020/4/14,6:30,75,52
2020/4/14,7:00,75,45
2020/4/14,7:30,74,42
2020/4/14,8:00,72,38
2020/4/14,8:30,68,35
2020/4/14,9:00,65,38
2020/4/14,9:30,63,39
2020/4/14,10:00,62,36
2020/4/14,10:30,61,44
2020/4/14,11:00,61,49
2020/4/14,11:30,62,53
2020/4/14,12:00,62,56
2020/4/14,12:30,61,56
2020/4/14,13:00,60,53
2020/4/14,13:30,59,52
2020/4/14,14:00,57,52
2020/4/14,14:30,55,51
2020/4/14,15:00,53,53
2020/4/14,15:30,51,52
2020/4/14,16:00,47,49
2020/4/14,16:30,44,47
2020/4/14,17:00,39,40
2020/4/14,17:30,34,32
2020/4/14,18:00,29,22
2020/4/14,18:30,25,20
2020/4/14,19:00,22,25
2020/4/14,19:30,20,21
2020/4/14,20:00,18,16
2020/4/14,20:30,16,14
2020/4/14,21:00,14,13
2020/4/14,21:30,12,13
2020/4/14,22:00,10,11
2020/4/14,22:30,9,9
2020/4/14,23:00,8,8
2020/4/14,23:30,7,11
2020/4/15,0:00,6,10
2020/4/15,0:30,6,10
2020/4/15,1:00,6,12
2020/4/15,1:30,6,12
2020/4/15,2:00,6,9
2020/4/15,2:30,6,8
2020/4/15,3:00,6,6
2020/4/15,3:30,6,5
2020/4/15,4:00,6,4
2020/4/15,4:30,6,6
2020/4/15,5:00,6,5
2020/4/15,5:30,6,4
2020/4/15,6:00,5,3
2020/4/15,6:30,5,2
2020/4/15,7:00,5,1
2020/4/15,7:30,5,0
2020/4/15,8:00,4,1
2020/4/15,8:30,4,1
2020/4/15,9:00,4,0
2020/4/15,9:30,4,0
2020/4/15,10:00,4,0
2020/4/15,10:30,4,0
2020/4/15,11:00,4,0
2020/4/15,11:30,4,0
2020/4/15,12:00,4,0
2020/4/15,12:30,3,1
2020/4/15,13:00,3,1
2020/4/15,13:30,3,2
2020/4/15,14:00,3,2
2020/4/15,14:30,3,2
2020/4/15,15:00,3,4
2020/4/15,15:30,4,6
2020/4/15,16:00,4,5
2020/4/15,16:30,4,3
2020/4/15,17:00,4,2
2020/4/15,17:30,4,2
2020/4/15,18:00,5,3
2020/4/15,18:30,5,3
2020/4/15,19:00,5,2
2020/4/15,19:30,5,2
2020/4/15,20:00,5,1
2020/4/15,20:30,6,0
2020/4/15,21:00,7,0
2020/4/15,21:30,8,0
2020/4/15,22:00,10,1
2020/4/15,22:30,13,5
2020/4/15,23:00,15,6
2020/4/15,23:30,17,5
2020/4/16,0:00,11,6
2020/4/16,0:30,12,8
2020/4/16,1:00,13,10
2020/4/16,1:30,14,14
2020/4/16,2:00,15,18
2020/4/16,2:30,17,19
2020/4/16,3:00,19,19
2020/4/16,3:30,21,18
2020/4/16,4:00,23,19
2020/4/16,4:30,25,18
2020/4/16,5:00,25,17
2020/4/16,5:30,25,14
2020/4/16,6:00,24,15
2020/4/16,6:30,23,15
2020/4/16,7:00,22,12
2020/4/16,7:30,22,10
2020/4/16,8:00,22,10
2020/4/16,8:30,21,10
2020/4/16,9:00,20,9
2020/4/16,9:30,20,12
2020/4/16,10:00,19,11
2020/4/16,10:30,18,11
2020/4/16,11:00,18,10
2020/4/16,11:30,17,11
2020/4/16,12:00,17,12
2020/4/16,12:30,17,10
2020/4/16,13:00,17,10
2020/4/16,13:30,17,8
2020/4/16,14:00,18,8
2020/4/16,14:30,18,7
2020/4/16,15:00,19,7
2020/4/16,15:30,19,7
2020/4/16,16:00,17,9
2020/4/16,16:30,15,9
2020/4/16,17:00,12,9
2020/4/16,17:30,8,10
2020/4/16,18:00,6,11
2020/4/16,18:30,4,13
2020/4/16,19:00,4,13
2020/4/16,19:30,4,10
2020/4/16,20:00,4,8
2020/4/16,20:30,4,5
2020/4/16,21:00,4,2
2020/4/16,21:30,4,1
2020/4/16,22:00,4,0
2020/4/16,22:30,4,2
2020/4/16,23:00,4,2
2020/4/16,23:30,4,3
2020/4/17,0:00,5,3
2020/4/17,0:30,5,3
2020/4/17,1:00,5,6
2020/4/17,1:30,5,8
2020/4/17,2:00,5,8
2020/4/17,2:30,5,8
2020/4/17,3:00,5,6
2020/4/17,3:30,5,5
2020/4/17,4:00,5,4
2020/4/17,4:30,5,5
2020/4/17,5:00,5,10
2020/4/17,5:30,5,10
2020/4/17,6:00,5,13
2020/4/17,6:30,6,17
2020/4/17,7:00,7,22
2020/4/17,7:30,8,22
2020/4/17,8:00,10,21
2020/4/17,8:30,15,20
2020/4/17,9:00,19,20
2020/4/17,9:30,22,21
2020/4/17,10:00,25,28
2020/4/17,10:30,29,32
2020/4/17,11:00,34,39
2020/4/17,11:30,39,43
2020/4/17,12:00,44,46
2020/4/17,12:30,48,49
2020/4/17,13:00,52,49
2020/4/17,13:30,55,49
2020/4/17,14:00,58,48
2020/4/17,14:30,60,48
2020/4/17,15:00,60,50
2020/4/17,15:30,57,53
2020/4/17,16:00,56,52
2020/4/17,16:30,58,52
2020/4/17,17:00,60,59
2020/4/17,17:30,60,65
2020/4/17,18:00,61,70
2020/4/17,18:30,63,77
2020/4/17,19:00,64,83
2020/4/17,19:30,63,85
2020/4/17,20:00,63,87
2020/4/17,20:30,64,82
2020/4/17,21:00,65,76
2020/4/17,21:30,67,68
2020/4/17,22:00,67,72
2020/4/17,22:30,63,73
2020/4/17,23:00,61,68
2020/4/17,23:30,59,64
2020/4/18,0:00,69,65
2020/4/18,0:30,64,68
2020/4/18,1:00,64,66
2020/4/18,1:30,70,65
2020/4/18,2:00,66,60
2020/4/18,2:30,48,48
2020/4/18,3:00,37,43
2020/4/18,3:30,36,47
2020/4/18,4:00,40,45
2020/4/18,4:30,52,37
2020/4/18,5:00,59,39
2020/4/18,5:30,61,40
2020/4/18,6:00,59,39
2020/4/18,6:30,53,40
2020/4/18,7:00,51,39
2020/4/18,7:30,55,43
2020/4/18,8:00,58,59
2020/4/18,8:30,59,59
2020/4/18,9:00,60,57
2020/4/18,9:30,61,64
2020/4/18,10:00,62,71
2020/4/18,10:30,61,72
2020/4/18,11:00,59,72
2020/4/18,11:30,57,81
2020/4/18,12:00,56,78
2020/4/18,12:30,55,79
2020/4/18,13:00,54,84
2020/4/18,13:30,54,85
2020/4/18,14:00,56,86
2020/4/18,14:30,58,86
2020/4/18,15:00,61,84
2020/4/18,15:30,64,86
2020/4/18,16:00,66,89
2020/4/18,16:30,66,83
2020/4/18,17:00,66,80
2020/4/18,17:30,64,80
2020/4/18,18:00,63,83
2020/4/18,18:30,61,82
2020/4/18,19:00,60,79
2020/4/18,19:30,58,73
2020/4/18,20:00,57,77
2020/4/18,20:30,57,80
2020/4/18,21:00,57,79
2020/4/18,21:30,59,80
2020/4/18,22:00,62,83
2020/4/18,22:30,66,81
2020/4/18,23:00,69,77
2020/4/18,23:30,71,74
2020/4/19,0:00,73,64
2020/4/19,0:30,71,68
2020/4/19,1:00,68,77
2020/4/19,1:30,66,82
2020/4/19,2:00,64,81
2020/4/19,2:30,62,74
2020/4/19,3:00,61,72
2020/4/19,3:30,61,63
2020/4/19,4:00,60,57
2020/4/19,4:30,57,42
2020/4/19,5:00,55,45
2020/4/19,5:30,52,46
2020/4/19,6:00,48,36
2020/4/19,6:30,44,28
2020/4/19,7:00,41,25
2020/4/19,7:30,39,25
2020/4/19,8:00,36,23
2020/4/19,8:30,34,17
2020/4/19,9:00,31,14
2020/4/19,9:30,29,13
2020/4/19,10:00,26,12
2020/4/19,10:30,23,11
2020/4/19,11:00,19,12
2020/4/19,11:30,15,11
2020/4/19,12:00,13,10
2020/4/19,12:30,11,8
2020/4/19,13:00,10,7
2020/4/19,13:30,7,7
2020/4/19,14:00,6,8
2020/4/19,14:30,4,8
2020/4/19,15:00,4,7
2020/4/19,15:30,5,8
2020/4/19,16:00,6,8
2020/4/19,16:30,7,13
2020/4/19,17:00,9,14
2020/4/19,17:30,11,14
2020/4/19,18:00,14,20
2020/4/19,18:30,18,29
2020/4/19,19:00,25,41
2020/4/19,19:30,34,51
2020/4/19,20:00,43,65
2020/4/19,20:30,52,73
2020/4/19,21:00,60,77
2020/4/19,21:30,65,84
2020/4/19,22:00,69,86
2020/4/19,22:30,70,83
2020/4/19,23:00,71,80
2020/4/19,23:30,71,77
2020/4/20,0:00,69,76
2020/4/20,0:30,60,75
2020/4/20,1:00,51,67
2020/4/20,1:30,44,50
2020/4/20,2:00,40,48
2020/4/20,2:30,41,49
2020/4/20,3:00,40,26
2020/4/20,3:30,34,19
2020/4/20,4:00,32,12
2020/4/20,4:30,34,16
2020/4/20,5:00,34,27
2020/4/20,5:30,30,33
2020/4/20,6:00,28,34
2020/4/20,6:30,27,31
2020/4/20,7:00,30,32
2020/4/20,7:30,37,41
2020/4/20,8:00,47,54
2020/4/20,8:30,59,61
2020/4/20,9:00,68,56
2020/4/20,9:30,72,57
2020/4/20,10:00,74,58
2020/4/20,10:30,73,62
2020/4/20,11:00,71,63
2020/4/20,11:30,71,64
2020/4/20,12:00,70,63
2020/4/20,12:30,70,65
2020/4/20,13:00,71,72
2020/4/20,13:30,73,72
2020/4/20,14:00,74,63
2020/4/20,14:30,71,60
2020/4/20,15:00,69,59
2020/4/20,15:30,66,58
2020/4/20,16:00,63,54
2020/4/20,16:30,59,54
2020/4/20,17:00,57,45
2020/4/20,17:30,55,41
2020/4/20,18:00,52,36
2020/4/20,18:30,48,28
2020/4/20,19:00,43,28
2020/4/20,19:30,36,29
2020/4/20,20:00,31,32
2020/4/20,20:30,28,32
2020/4/20,21:00,26,25
2020/4/20,21:30,24,18
2020/4/20,22:00,22,19
2020/4/20,22:30,20,16
2020/4/20,23:00,18,14
2020/4/20,23:30,17,11
2020/4/21,0:00,25,10
2020/4/21,0:30,26,13
2020/4/21,1:00,29,14
2020/4/21,1:30,32,18
2020/4/21,2:00,35,23
2020/4/21,2:30,38,33
2020/4/21,3:00,40,46
2020/4/21,3:30,42,50
2020/4/21,4:00,44,46
2020/4/21,4:30,45,43
2020/4/21,5:00,46,42
2020/4/21,5:30,46,42
2020/4/21,6:00,46,50
2020/4/21,6:30,45,57
2020/4/21,7:00,46,64
2020/4/21,7:30,48,66
2020/4/21,8:00,49,70
2020/4/21,8:30,48,62
2020/4/21,9:00,46,58
2020/4/21,9:30,43,53
2020/4/21,10:00,40,49
2020/4/21,10:30,38,41
2020/4/21,11:00,36,38
2020/4/21,11:30,34,34
2020/4/21,12:00,32,31
2020/4/21,12:30,30,33
2020/4/21,13:00,28,30
2020/4/21,13:30,26,31
2020/4/21,14:00,23,34
2020/4/21,14:30,21,30
2020/4/21,15:00,19,21
2020/4/21,15:30,17,16
2020/4/21,16:00,15,18
2020/4/21,16:30,15,18
2020/4/21,17:00,14,15
2020/4/21,17:30,14,19
2020/4/21,18:00,15,19
2020/4/21,18:30,19,25
2020/4/21,19:00,24,26
2020/4/21,19:30,30,38
2020/4/21,20:00,36,46
2020/4/21,20:30,46,53
2020/4/21,21:00,52,57
2020/4/21,21:30,55,52
2020/4/21,22:00,57,59
2020/4/21,22:30,59,70
2020/4/21,23:00,61,77
2020/4/21,23:30,63,80
2020/4/22,0:00,67,86
2020/4/22,0:30,69,86
2020/4/22,1:00,71,85
2020/4/22,1:30,71,84
2020/4/22,2:00,72,82
2020/4/22,2:30,74,80
2020/4/22,3:00,75,82
2020/4/22,3:30,75,84
2020/4/22,4:00,75,82
2020/4/22,4:30,75,78
2020/4/22,5:00,76,69
2020/4/22,5:30,77,73
2020/4/22,6:00,78,71
2020/4/22,6:30,78,71
2020/4/22,7:00,77,77
2020/4/22,7:30,76,78
2020/4/22,8:00,74,82
2020/4/22,8:30,71,82
2020/4/22,9:00,69,82
2020/4/22,9:30,67,83
2020/4/22,10:00,66,85
2020/4/22,10:30,65,85
2020/4/22,11:00,66,82
2020/4/22,11:30,67,83
2020/4/22,12:00,69,87
2020/4/22,12:30,70,86
2020/4/22,13:00,70,83
2020/4/22,13:30,70,80
2020/4/22,14:00,70,79
2020/4/22,14:30,71,82
2020/4/22,15:00,72,79
2020/4/22,15:30,71,79
2020/4/22,16:00,71,77
2020/4/22,16:30,70,78
2020/4/22,17:00,69,82
2020/4/22,17:30,68,82
2020/4/22,18:00,67,75
2020/4/22,18:30,65,75
2020/4/22,19:00,63,71
2020/4/22,19:30,61,69
2020/4/22,20:00,60,68
2020/4/22,20:30,58,68
2020/4/22,21:00,57,72
2020/4/22,21:30,56,69
2020/4/22,22:00,56,66
2020/4/22,22:30,56,62
2020/4/22,23:00,56,59
2020/4/22,23:30,56,64
2020/4/23,0:00,56,68
2020/4/23,0:30,59,69
2020/4/23,1:00,61,69
2020/4/23,1:30,61,65
2020/4/23,2:00,61,61
2020/4/23,2:30,62,62
2020/4/23,3:00,62,63
2020/4/23,3:30,62,61
2020/4/23,4:00,62,56
2020/4/23,4:30,61,53
2020/4/23,5:00,60,48
2020/4/23,5:30,58,45
2020/4/23,6:00,56,42
2020/4/23,6:30,55,42
2020/4/23,7:00,54,42
2020/4/23,7:30,54,39
2020/4/23,8:00,54,38
2020/4/23,8:30,54,40
2020/4/23,9:00,55,39
2020/4/23,9:30,57,33
2020/4/23,10:00,58,38
2020/4/23,10:30,57,44
2020/4/23,11:00,58,43
2020/4/23,11:30,58,44
2020/4/23,12:00,59,49
2020/4/23,12:30,61,56
2020/4/23,13:00,62,52
2020/4/23,13:30,63,54
2020/4/23,14:00,64,52
2020/4/23,14:30,64,55
2020/4/23,15:00,65,61
2020/4/23,15:30,67,72
2020/4/23,16:00,68,79
2020/4/23,16:30,68,82
2020/4/23,17:00,67,79
2020/4/23,17:30,64,77
2020/4/23,18:00,61,78
2020/4/23,18:30,56,78
2020/4/23,19:00,51,75
2020/4/23,19:30,46,69
2020/4/23,20:00,41,61
2020/4/23,20:30,37,62
2020/4/23,21:00,34,65
2020/4/23,21:30,31,65
2020/4/23,22:00,28,69
2020/4/23,22:30,26,67